TimePST,TemperatureF,Dew PointF,Humidity,Sea Level PressureIn,VisibilityMPH,Wind Direction,Wind SpeedMPH,Gust SpeedMPH,PrecipitationIn,Events,Conditions,WindDirDegrees,DateUTC
12:53 AM,27.0,18.0,69,30.17,10.0,Calm,Calm,-,N/A,,Clear,0,2012-03-10 08:53:00
1:53 AM,27.0,18.0,69,30.12,10.0,Calm,Calm,-,N/A,,Clear,0,2012-03-10 09:53:00
2:53 AM,25.0,17.1,72,30.08,10.0,Calm,Calm,-,N/A,,Clear,0,2012-03-10 10:53:00
3:53 AM,24.1,17.1,75,30.08,10.0,Calm,Calm,-,N/A,,Clear,0,2012-03-10 11:53:00
4:53 AM,21.9,16.0,78,30.09,10.0,Calm,Calm,-,N/A,,Clear,0,2012-03-10 12:53:00
5:53 AM,21.9,14.0,72,30.10,10.0,Calm,Calm,-,N/A,,Clear,0,2012-03-10 13:53:00
6:53 AM,23.0,15.1,72,30.10,10.0,Calm,Calm,-,N/A,,Clear,0,2012-03-10 14:53:00
7:53 AM,27.0,17.1,66,30.11,10.0,Calm,Calm,-,N/A,,Clear,0,2012-03-10 15:53:00
8:53 AM,30.0,21.0,69,30.10,10.0,Calm,Calm,-,N/A,,Clear,0,2012-03-10 16:53:00
9:53 AM,43.0,21.9,43,30.05,10.0,Variable,3.5,-,N/A,,Clear,0,2012-03-10 17:53:00
10:53 AM,54.0,-0.0,11,29.99,10.0,SSW,12.7,24.2,N/A,,Clear,210,2012-03-10 18:53:00
11:53 AM,55.0,9.0,16,29.99,10.0,SSW,15.0,23.0,N/A,,Clear,200,2012-03-10 19:53:00
12:53 PM,54.0,10.0,17,29.97,10.0,SSW,11.5,18.4,N/A,,Clear,200,2012-03-10 20:53:00
1:53 PM,54.0,15.1,22,29.94,10.0,South,9.2,18.4,N/A,,Clear,190,2012-03-10 21:53:00
2:53 PM,54.0,10.0,17,29.94,10.0,SSW,9.2,-,N/A,,Clear,200,2012-03-10 22:53:00
3:53 PM,53.1,12.0,20,29.93,10.0,SSW,9.2,-,N/A,,Clear,200,2012-03-10 23:53:00
4:53 PM,50.0,10.0,20,29.95,10.0,South,6.9,-,N/A,,Clear,190,2012-03-11 00:53:00
5:53 PM,46.9,14.0,27,29.94,10.0,SW,5.8,17.3,N/A,,Clear,220,2012-03-11 01:53:00
6:53 PM,42.1,19.9,41,29.96,10.0,SSW,8.1,-,N/A,,Clear,200,2012-03-11 02:53:00
7:53 PM,41.0,19.9,43,29.96,10.0,SSW,6.9,-,N/A,,Clear,210,2012-03-11 03:53:00
8:53 PM,41.0,16.0,36,29.96,10.0,SSW,5.8,-,N/A,,Clear,210,2012-03-11 04:53:00
9:53 PM,42.1,12.9,31,29.91,10.0,SW,4.6,-,N/A,,Scattered Clouds,230,2012-03-11 05:53:00
10:53 PM,42.1,10.9,28,29.85,10.0,South,11.5,-,N/A,,Scattered Clouds,180,2012-03-11 06:53:00
11:53 PM,42.1,12.0,29,29.83,10.0,South,5.8,25.3,N/A,,Overcast,170,2012-03-11 07:53:00